Auburn-Lewiston, ME

3:28 PM EDT on September 22, 2017 (GMT -0400)
Auburn-Lewiston Municipal

Weather History for KLEW - January, 2013

Change the Weather History Date:

Thursday, January 10, 2013

  Actual Average Record
Temperature  
Mean Temperature 33 °F -  
Max Temperature 42 °F 25 °F 55 °F (2016)
Min Temperature 24 °F 9 °F -9 °F (2004)
Degree Days  
Heating Degree Days 32    
Moisture  
Dew Point 22 °F    
Average Humidity 56    
Maximum Humidity 93    
Minimum Humidity 39    
Precipitation  
Precipitation 0.00 in - - ()
Sea Level Pressure  
Sea Level Pressure 30.22 in    
Wind  
Wind Speed 11 mph (NW)    
Max Wind Speed 28 mph    
Max Gust Speed 41 mph    
Visibility 10 miles    
Events      
Averages and records for this station are not official NWS values.
T = Trace of Precipitation, MM = Missing Value Source: NWS Daily Summary

Daily Weather History Graph

Daily Weather History Graph

Search for Another Location

Airport or City:

Trip Planner

Search our weather history database for the weather conditions in past years. The results will help you decide how hot, cold, wet, or windy it might be!

Date:

Astronomy

Jan. 10, 2013 Rise Set
Actual Time 7:14 AM EST 4:23 PM EST
Civil Twilight 6:42 AM EST 4:55 PM EST
Nautical Twilight 6:06 AM EST 5:31 PM EST
Astronomical Twilight 5:31 AM EST 6:06 PM EST
Moon 5:51 AM EST (1/10) 3:27 PM EST (1/10)
Length of Visible Light 10h 13m
Length of Day
9h 08m
Waning Crescent, 2% of the Moon is Illuminated
Jan 10
Waning Crescent
Jan 11
New
Jan 18
First Quarter
Jan 26
Full
Feb 3
Last Quarter

Hourly Weather History & Observations

Time (EST) Temp. Windchill Dew Point Humidity Pressure Visibility Wind Dir Wind Speed Gust Speed Precip Events Conditions
12:15 AM 24.8 °F - 21.2 °F 86% 29.88 in 7.0 mi Calm Calm - N/A   Scattered Clouds
12:35 AM 28.4 °F 24.6 °F 26.6 °F 93% 29.89 in 10.0 mi WSW 3.5 mph - N/A   Scattered Clouds
12:55 AM 30.2 °F 26.7 °F 26.6 °F 86% 29.89 in 10.0 mi North 3.5 mph - N/A   Mostly Cloudy
1:15 AM 32.0 °F 26.4 °F 24.8 °F 75% 29.90 in 10.0 mi North 5.8 mph - N/A   Overcast
1:35 AM 32.0 °F 26.4 °F 23.0 °F 69% 29.92 in 10.0 mi NNW 5.8 mph - N/A   Mostly Cloudy
1:55 AM 33.8 °F 27.7 °F 24.8 °F 70% 29.94 in 10.0 mi North 6.9 mph - N/A   Overcast
2:15 AM 33.8 °F 30.8 °F 30.2 °F 87% 29.95 in 10.0 mi West 3.5 mph - N/A   Mostly Cloudy
2:35 AM 33.8 °F 26.4 °F 30.2 °F 87% 29.95 in 10.0 mi WSW 9.2 mph - N/A   Mostly Cloudy
2:55 AM 35.6 °F 28.0 °F 30.2 °F 81% 29.96 in 10.0 mi West 10.4 mph - N/A   Scattered Clouds
3:15 AM 35.6 °F 28.0 °F 30.2 °F 81% 29.97 in 10.0 mi West 10.4 mph - N/A   Scattered Clouds
3:35 AM 35.6 °F 29.2 °F 30.2 °F 81% 29.98 in 10.0 mi West 8.1 mph - N/A   Partly Cloudy
3:55 AM 37.4 °F 29.8 °F 28.4 °F 70% 29.99 in 10.0 mi WNW 11.5 mph 19.6 mph N/A   Clear
4:15 AM 37.4 °F 27.8 °F 28.4 °F 70% 30.01 in 10.0 mi WNW 17.3 mph 27.6 mph N/A   Clear
4:35 AM 37.4 °F 28.5 °F 26.6 °F 65% 30.03 in 10.0 mi WNW 15.0 mph 26.5 mph N/A   Mostly Cloudy
4:55 AM 39.2 °F 30.8 °F 26.6 °F 61% 30.05 in 10.0 mi WNW 15.0 mph 24.2 mph N/A   Overcast
5:15 AM 39.2 °F 31.2 °F 24.8 °F 56% 30.07 in 10.0 mi NW 13.8 mph 38.0 mph N/A   Overcast
5:55 AM 39.2 °F 27.8 °F 21.2 °F 49% 30.10 in 10.0 mi NW 27.6 mph 41.4 mph N/A   Overcast
6:15 AM 39.2 °F 30.5 °F 21.2 °F 49% 30.10 in 10.0 mi NW 16.1 mph 23.0 mph N/A   Overcast
6:35 AM 39.2 °F 30.5 °F 21.2 °F 49% 30.11 in 10.0 mi WNW 16.1 mph 28.8 mph N/A   Mostly Cloudy
6:55 AM 39.2 °F 29.6 °F 21.2 °F 49% 30.11 in 10.0 mi NW 19.6 mph 27.6 mph N/A   Overcast
7:55 AM 39.2 °F 31.2 °F 23.0 °F 52% 30.16 in 10.0 mi NW 13.8 mph 25.3 mph N/A   Overcast
8:15 AM 39.2 °F 30.2 °F 23.0 °F 52% 30.17 in 10.0 mi NW 17.3 mph 28.8 mph N/A   Overcast
8:35 AM 39.2 °F 31.6 °F 23.0 °F 52% 30.17 in 10.0 mi NW 12.7 mph 25.3 mph N/A   Mostly Cloudy
8:55 AM 39.2 °F 30.2 °F 23.0 °F 52% 30.19 in 10.0 mi WNW 17.3 mph 25.3 mph N/A   Mostly Cloudy
9:35 AM 39.2 °F 30.8 °F 21.2 °F 49% 30.21 in 10.0 mi NW 15.0 mph 24.2 mph N/A   Mostly Cloudy
9:55 AM 41.0 °F 31.1 °F 21.2 °F 45% 30.21 in 10.0 mi NW 23.0 mph 32.2 mph N/A   Mostly Cloudy
10:15 AM 41.0 °F 31.9 °F 21.2 °F 45% 30.22 in 10.0 mi NNW 19.6 mph 34.5 mph N/A   Partly Cloudy
10:55 AM 41.0 °F 30.7 °F 21.2 °F 45% 30.23 in 10.0 mi NW 25.3 mph 32.2 mph N/A   Scattered Clouds
11:15 AM 41.0 °F 30.7 °F 21.2 °F 45% 30.23 in 10.0 mi NW 25.3 mph 38.0 mph N/A   Mostly Cloudy
11:35 AM 42.8 °F 34.5 °F 21.2 °F 42% 30.22 in 10.0 mi NW 18.4 mph 33.4 mph N/A   Scattered Clouds
11:55 AM 41.0 °F 30.7 °F 21.2 °F 45% 30.22 in 10.0 mi NNW 25.3 mph 34.5 mph N/A   Partly Cloudy
12:15 PM 42.8 °F 33.3 °F 21.2 °F 42% 30.23 in 10.0 mi NNW 24.2 mph 35.7 mph N/A   Clear
12:35 PM 42.8 °F 33.5 °F 21.2 °F 42% 30.22 in 10.0 mi NW 23.0 mph 35.7 mph N/A   Clear
12:55 PM 42.8 °F 32.9 °F 21.2 °F 42% 30.21 in 10.0 mi NW 26.5 mph 39.1 mph N/A   Clear
1:15 PM 42.8 °F 33.1 °F 21.2 °F 42% 30.23 in 10.0 mi NNW 25.3 mph 32.2 mph N/A   Clear
1:35 PM 42.8 °F 35.8 °F 21.2 °F 42% 30.26 in 10.0 mi NW 13.8 mph 28.8 mph N/A   Partly Cloudy
1:55 PM 42.8 °F 37.0 °F 19.4 °F 39% 30.28 in 10.0 mi WNW 10.4 mph 26.5 mph N/A   Scattered Clouds
2:15 PM 42.8 °F 33.8 °F 19.4 °F 39% 30.29 in 10.0 mi NNW 21.9 mph 31.1 mph N/A   Scattered Clouds
2:55 PM 41.0 °F 31.6 °F 19.4 °F 42% 30.31 in 10.0 mi NNW 20.7 mph 36.8 mph N/A   Scattered Clouds
3:15 PM 41.0 °F 31.9 °F 21.2 °F 45% 30.31 in 10.0 mi NW 19.6 mph 25.3 mph N/A   Partly Cloudy
3:36 PM 39.2 °F 28.7 °F 19.4 °F 45% 30.30 in 10.0 mi NW 23.0 mph 28.8 mph N/A   Clear
3:55 PM 39.2 °F 30.5 °F 21.2 °F 49% 30.32 in 10.0 mi NNW 16.1 mph 27.6 mph N/A   Clear
4:15 PM 39.2 °F 32.5 °F 21.2 °F 49% 30.33 in 10.0 mi NNW 10.4 mph 20.7 mph N/A   Clear
4:35 PM 37.4 °F 32.1 °F 19.4 °F 48% 30.36 in 10.0 mi NW 6.9 mph - N/A   Clear
4:55 PM 37.4 °F 30.8 °F 19.4 °F 48% 30.37 in 10.0 mi WNW 9.2 mph 17.3 mph N/A   Clear
5:15 PM 37.4 °F 28.2 °F 19.4 °F 48% 30.36 in 10.0 mi NW 16.1 mph 19.6 mph N/A   Clear
5:35 PM 37.4 °F 28.2 °F 19.4 °F 48% 30.37 in 10.0 mi NW 16.1 mph 24.2 mph N/A   Clear
5:55 PM 37.4 °F 28.5 °F 19.4 °F 48% 30.38 in 10.0 mi NW 15.0 mph 23.0 mph N/A   Clear
6:15 PM 37.4 °F 28.9 °F 19.4 °F 48% 30.40 in 10.0 mi NNW 13.8 mph 21.9 mph N/A   Clear
6:35 PM 37.4 °F 29.8 °F 19.4 °F 48% 30.41 in 10.0 mi North 11.5 mph 17.3 mph N/A   Clear
6:55 PM 35.6 °F 26.2 °F 19.4 °F 52% 30.41 in 10.0 mi NNW 15.0 mph 21.9 mph N/A   Clear
7:15 PM 35.6 °F 25.5 °F 19.4 °F 52% 30.41 in 10.0 mi NNW 17.3 mph 24.2 mph N/A   Clear
7:35 PM 35.6 °F 26.2 °F 19.4 °F 52% 30.43 in 10.0 mi NNW 15.0 mph 20.7 mph N/A   Clear
7:55 PM 35.6 °F 28.6 °F 19.4 °F 52% 30.44 in 10.0 mi North 9.2 mph - N/A   Clear
8:35 PM 33.8 °F 30.8 °F 19.4 °F 56% 30.45 in 10.0 mi NNE 3.5 mph - N/A   Clear
8:55 PM 33.8 °F 28.6 °F 17.6 °F 52% 30.46 in 10.0 mi NW 5.8 mph - N/A   Clear
9:15 PM 33.8 °F 28.6 °F 19.4 °F 56% 30.46 in 10.0 mi North 5.8 mph - N/A   Clear
10:15 PM 32.0 °F - 17.6 °F 55% 30.49 in 10.0 mi Calm Calm - N/A   Clear
10:35 PM 32.0 °F - 17.6 °F 55% 30.49 in 10.0 mi Calm Calm - N/A   Clear
10:55 PM 30.2 °F 25.4 °F 19.4 °F 64% 30.50 in 10.0 mi West 4.6 mph - N/A   Clear
11:15 PM 30.2 °F 24.3 °F 17.6 °F 60% 30.50 in 10.0 mi NW 5.8 mph - N/A   Clear
11:35 PM 30.2 °F 23.4 °F 17.6 °F 60% 30.50 in 10.0 mi NNW 6.9 mph - N/A   Clear
11:55 PM 30.2 °F 23.4 °F 17.6 °F 60% 30.50 in 10.0 mi North 6.9 mph - N/A   Clear